Terug naar catalogus

COSMOS 1275 DEB

ActiefPO
NORAD 18640·DEBRIS·🇷🇺 Russia

Gelanceerd Jun 4, 1981 vanaf Plesetsk Cosmodrome

Loading…

Volgende Passages (komende 24 uur)

TLE

VersSource: Space-Track

Epoch: Sep 12, 2026, 08:01 UTC

1 18640U 81053MA  26255.33469657  .00000954  00000-0  76843-3 0  9998
2 18640  83.2076  16.7162 0082210   2.1931  27.1852 13.87955709 73862

Volg COSMOS 1275 DEB in realtime met AllMySat

Download on the App Store